TimeGMT,TemperatureF,Dew PointF,Humidity,Sea Level PressureIn,VisibilityMPH,Wind Direction,Wind SpeedMPH,Gust SpeedMPH,PrecipitationIn,Events,Conditions,WindDirDegrees,DateUTC
12:00 AM,36,35,97,30.27,9,WSW,4.5,,,,Mist,250,2013-01-09 00:00:00
12:00 AM,37.4,35.6,93,30.24,6.2,Variable,3.5,-,N/A,,Partly Cloudy,0,2013-01-09 00:00:00
12:30 AM,35.6,35.6,100,30.24,6.2,WSW,3.5,-,N/A,,Partly Cloudy,240,2013-01-09 00:30:00
1:00 AM,35.6,35.6,100,30.24,6.2,WSW,5.8,-,N/A,,Partly Cloudy,250,2013-01-09 01:00:00
1:30 AM,35.6,35.6,100,30.24,6.2,WSW,6.9,-,N/A,,Partly Cloudy,250,2013-01-09 01:30:00
2:00 AM,33.8,33.8,100,30.24,6.2,West,5.8,-,N/A,,Partly Cloudy,260,2013-01-09 02:00:00
2:30 AM,32.0,30.2,93,30.21,6.2,West,4.6,-,N/A,,Partly Cloudy,260,2013-01-09 02:30:00
3:00 AM,33.8,33.8,100,30.21,6.2,West,9.2,-,N/A,,Partly Cloudy,260,2013-01-09 03:00:00
3:30 AM,33.8,33.8,100,30.21,6.2,West,8.1,-,N/A,,Partly Cloudy,260,2013-01-09 03:30:00
4:00 AM,33.8,33.8,100,30.21,6.2,West,9.2,-,N/A,,Partly Cloudy,260,2013-01-09 04:00:00
4:30 AM,33.8,33.8,100,30.21,6.2,West,8.1,-,N/A,,Partly Cloudy,260,2013-01-09 04:30:00
5:00 AM,30.2,30.2,100,30.21,6.2,West,8.1,-,N/A,,Partly Cloudy,270,2013-01-09 05:00:00
5:30 AM,32.0,30.2,93,30.21,6.2,West,8.1,-,N/A,,Partly Cloudy,270,2013-01-09 05:30:00
6:00 AM,31,30,96,30.24,7,West,8.9,,,,Mist,270,2013-01-09 06:00:00
6:00 AM,30.2,30.2,100,30.21,-9999.0,West,8.1,-,N/A,,Clear,270,2013-01-09 06:00:00
6:30 AM,30.2,30.2,100,30.21,-9999.0,West,8.1,-,N/A,,Clear,260,2013-01-09 06:30:00
7:00 AM,30.2,30.2,100,30.21,-9999.0,West,5.8,-,N/A,,Clear,260,2013-01-09 07:00:00
7:30 AM,30.2,30.2,100,30.21,-9999.0,West,5.8,-,N/A,,Clear,260,2013-01-09 07:30:00
8:00 AM,28.4,28.4,100,30.21,6.2,West,6.9,-,N/A,,Partly Cloudy,270,2013-01-09 08:00:00
8:30 AM,30.2,30.2,100,30.21,6.2,West,5.8,-,N/A,,Partly Cloudy,270,2013-01-09 08:30:00
9:00 AM,30.2,30.2,100,30.21,6.2,West,5.8,-,N/A,,Partly Cloudy,270,2013-01-09 09:00:00
9:30 AM,30.2,30.2,100,30.21,6.2,West,3.5,-,N/A,,Partly Cloudy,260,2013-01-09 09:30:00
10:00 AM,32.0,32.0,100,30.21,-9999.0,West,3.5,-,N/A,,Clear,270,2013-01-09 10:00:00
10:30 AM,33.8,33.8,100,30.21,-9999.0,West,3.5,-,N/A,,Clear,270,2013-01-09 10:30:00
11:00 AM,37.4,35.6,93,30.21,-9999.0,WSW,3.5,-,N/A,,Clear,250,2013-01-09 11:00:00
11:30 AM,41.0,39.2,93,30.18,-9999.0,WSW,2.3,-,N/A,,Clear,240,2013-01-09 11:30:00
12:00 PM,44,38,72,30.21,19,WSW,4.5,,,,Clear,240,2013-01-09 12:00:00
12:00 PM,42.8,37.4,81,30.18,-9999.0,WSW,2.3,-,N/A,,Clear,240,2013-01-09 12:00:00
12:30 PM,46.4,39.2,76,30.18,-9999.0,Calm,Calm,-,N/A,,Clear,0,2013-01-09 12:30:00
1:00 PM,44.6,37.4,76,30.18,-9999.0,Calm,Calm,-,N/A,,Clear,0,2013-01-09 13:00:00
1:30 PM,46.4,35.6,66,30.15,6.2,East,4.6,-,N/A,,Partly Cloudy,100,2013-01-09 13:30:00
2:00 PM,44.6,37.4,76,30.15,6.2,East,3.5,-,N/A,,Partly Cloudy,100,2013-01-09 14:00:00
2:30 PM,44.6,37.4,76,30.15,6.2,SSE,4.6,-,N/A,,Partly Cloudy,160,2013-01-09 14:30:00
3:00 PM,46.4,37.4,71,30.15,6.2,South,5.8,-,N/A,,Partly Cloudy,170,2013-01-09 15:00:00
3:30 PM,44.6,37.4,76,30.15,6.2,ESE,4.6,-,N/A,,Partly Cloudy,120,2013-01-09 15:30:00
4:00 PM,41.0,35.6,81,30.15,6.2,East,4.6,-,N/A,,Partly Cloudy,80,2013-01-09 16:00:00
4:30 PM,39.2,35.6,87,30.15,6.2,Variable,1.2,-,N/A,,Partly Cloudy,0,2013-01-09 16:30:00
5:00 PM,37.4,33.8,87,30.12,6.2,NE,5.8,-,N/A,,Partly Cloudy,40,2013-01-09 17:00:00
5:30 PM,35.6,33.8,93,30.12,6.2,East,3.5,-,N/A,,Partly Cloudy,90,2013-01-09 17:30:00
6:00 PM,35,34,92,30.15,12,East,4.5,,,,Scattered Clouds,100,2013-01-09 18:00:00
6:00 PM,35.6,33.8,93,30.12,6.2,East,5.8,-,N/A,,Partly Cloudy,100,2013-01-09 18:00:00
6:30 PM,32.0,30.2,93,30.12,-9999.0,North,1.2,-,N/A,,Clear,360,2013-01-09 18:30:00
7:00 PM,32.0,30.2,93,30.12,-9999.0,SE,5.8,-,N/A,,Clear,130,2013-01-09 19:00:00
7:30 PM,30.2,30.2,100,30.12,-9999.0,Variable,1.2,-,N/A,,Clear,0,2013-01-09 19:30:00
8:00 PM,30.2,30.2,100,30.09,-9999.0,SSE,4.6,-,N/A,,Clear,150,2013-01-09 20:00:00
8:30 PM,30.2,30.2,100,30.09,-9999.0,South,3.5,-,N/A,,Clear,180,2013-01-09 20:30:00
9:00 PM,28.4,28.4,100,30.09,-9999.0,Calm,Calm,-,N/A,,Clear,0,2013-01-09 21:00:00
9:30 PM,28.4,28.4,100,30.09,-9999.0,East,5.8,-,N/A,,Clear,100,2013-01-09 21:30:00
10:00 PM,28.4,28.4,100,30.06,6.2,East,5.8,-,N/A,,Partly Cloudy,100,2013-01-09 22:00:00
10:30 PM,30.2,30.2,100,30.06,6.2,East,6.9,-,N/A,,Scattered Clouds,90,2013-01-09 22:30:00
11:00 PM,32.0,32.0,100,30.06,6.2,ESE,8.1,-,N/A,,Scattered Clouds,120,2013-01-09 23:00:00
11:30 PM,35.6,35.6,100,30.06,6.2,SE,6.9,-,N/A,,Mostly Cloudy,130,2013-01-09 23:30:00